^^
Datos históricos de la estación: Murcia-Puente Tocinos
Diario Informe para Abril 24, 2019 Unidades:  Inglés    Métrico   Ambas
Diario Semanal Mensual Anual Configurable
  Máximo: Mínimo: Media:
Temperatura: 68.7 °F 48.7 °F 59.7 °F
Punto de rocio: 52.3 °F 37 °F 43.9 °F
Humedad: 76% 36% 57%
Velocidad viento: 14mph 0mph 5.7mph
Racha viento: 24mph - -
Viento- - South
Presión: 29.8 in 29.6 in -
Precipitación: 0 in    
Historical Graphs
 
 
Tabla de datos para Abril 24, 2019
Hora Temperatura Punto de rocio Presión Viento Velocidad viento Racha viento Humedad Intensidad lluvia(por hora) Nubes
00:00 59.2 °F 41.2 °F 29.6 in SW 6 mph 12 mph 51% 0 in RA
00:05 59 °F 40.5 °F 29.7 in WNW 5.9 mph 6.9 mph 50% 0 in RA
00:10 58.8 °F 41.2 °F 29.7 in NW 6.4 mph 8.1 mph 52% 0 in CLR
00:15 58.6 °F 41.5 °F 29.7 in NW 6.4 mph 4.6 mph 53% 0 in CLR
00:20 58.3 °F 40.3 °F 29.7 in NW 4 mph 6.9 mph 51% 0 in CLR
00:25 57.9 °F 40.5 °F 29.7 in NNW 4 mph 8.1 mph 52% 0 in CLR
00:30 57.6 °F 39.6 °F 29.7 in WNW 5.2 mph 9.2 mph 51% 0 in CLR
00:35 57.6 °F 39.6 °F 29.7 in West 5.2 mph 6.9 mph 51% 0 in CLR
00:40 57.4 °F 39.9 °F 29.7 in West 4.3 mph 3.5 mph 52% 0 in CLR
00:45 57.2 °F 39.7 °F 29.7 in West 4.3 mph 4.6 mph 52% 0 in CLR
00:50 57 °F 39.9 °F 29.7 in West 1.8 mph 4.6 mph 53% 0 in CLR
00:55 56.8 °F 39.9 °F 29.7 in SW 1.8 mph 5.8 mph 53% 0 in CLR
01:00 56.7 °F 40.3 °F 29.7 in WSW 3 mph 7 mph 54% 0 in CLR
01:05 56.5 °F 39.9 °F 29.7 in West 3 mph 8 mph 54% 0 in CLR
01:10 56.1 °F 40.3 °F 29.7 in West 3 mph 7 mph 55% 0 in CLR
01:15 55.9 °F 40.5 °F 29.7 in NW 3.6 mph 4.6 mph 56% 0 in CLR
01:20 55.6 °F 40.6 °F 29.7 in WNW 3.1 mph 8.1 mph 57% 0 in CLR
01:25 55.2 °F 40.3 °F 29.7 in NW 3 mph 8 mph 57% 0 in CLR
01:30 55 °F 40.5 °F 29.7 in NW 4.3 mph 4.6 mph 58% 0 in CLR
01:35 55 °F 40.5 °F 29.7 in NW 5 mph 6 mph 58% 0 in CLR
01:40 54.9 °F 40.8 °F 29.7 in NW 2.9 mph 4.6 mph 59% 0 in CLR
01:45 54.7 °F 40.6 °F 29.7 in NW 2.9 mph 3.5 mph 59% 0 in CLR
01:50 54.7 °F 41 °F 29.7 in NNW 1 mph 5 mph 60% 0 in CLR
01:55 54.3 °F 41.2 °F 29.7 in NNW 1.4 mph 3.5 mph 61% 0 in CLR
02:00 54.3 °F 41.2 °F 29.7 in NNE 2 mph 5 mph 61% 0 in CLR
02:05 54.1 °F 41.4 °F 29.7 in NNE 2.9 mph 2.3 mph 62% 0 in CLR
02:10 54 °F 41.2 °F 29.7 in NNE 2 mph 3 mph 62% 0 in CLR
02:15 53.8 °F 41.2 °F 29.7 in SE 1.8 mph 6.9 mph 62% 0 in CLR
02:20 53.8 °F 41.2 °F 29.7 in ESE 3 mph 7 mph 62% 0 in CLR
02:25 54 °F 41.2 °F 29.7 in ESE 3.1 mph 5.8 mph 62% 0 in CLR
02:30 53.8 °F 41.2 °F 29.7 in SSE 4.3 mph 6.9 mph 62% 0 in CLR
02:35 53.8 °F 41.2 °F 29.7 in SSE 5 mph 7 mph 62% 0 in CLR
02:40 53.8 °F 41.2 °F 29.7 in SSW 5 mph 7 mph 62% 0 in CLR
02:45 53.8 °F 41.2 °F 29.7 in SW 5 mph 6 mph 62% 0 in CLR
02:50 54 °F 40.8 °F 29.7 in WSW 3 mph 6 mph 61% 0 in CLR
02:55 54 °F 40.8 °F 29.7 in WSW 3 mph 6 mph 61% 0 in CLR
03:00 54 °F 40.8 °F 29.7 in WSW 2 mph 5 mph 61% 0 in CLR
03:05 54 °F 41.2 °F 29.7 in WSW 2 mph 5 mph 62% 0 in CLR
03:10 53.6 °F 41.7 °F 29.7 in WSW 2 mph 5 mph 64% 0 in CLR
03:15 52.5 °F 41.5 °F 29.7 in NE 2 mph 6.9 mph 66% 0 in CLR
03:20 52.2 °F 41.9 °F 29.7 in ENE 2.9 mph 3.5 mph 68% 0 in CLR
03:25 51.6 °F 41.7 °F 29.7 in ENE 2.9 mph 1.4 mph 69% 0 in CLR
03:30 51.6 °F 41.7 °F 29.7 in ENE 2 mph 2 mph 69% 0 in CLR
03:35 51.6 °F 41.7 °F 29.7 in ENE 2 mph   69% 0 in CLR
03:40 51.6 °F 41.7 °F 29.7 in Calm   4 mph 69% 0 in CLR
03:45 51.6 °F 41.7 °F 29.7 in Calm   2.3 mph 69% 0 in CLR
03:50 51.8 °F 41.5 °F 29.7 in WNW 1.4 mph 4.6 mph 68% 0 in CLR
03:55 52.2 °F 41.2 °F 29.7 in WNW 1.4 mph 3.5 mph 66% 0 in CLR
04:00 52.2 °F 41.2 °F 29.7 in West 2 mph 5 mph 66% 0 in CLR
04:05 52.2 °F 41.2 °F 29.7 in West 2 mph 6 mph 66% 0 in CLR
04:10 52.2 °F 41.2 °F 29.7 in WNW 2.4 mph 2.3 mph 66% 0 in CLR
04:15 52 °F 41 °F 29.7 in WNW 2.4 mph 3.5 mph 66% 0 in CLR
04:20 52 °F 41 °F 29.7 in SW 2 mph 4.6 mph 66% 0 in CLR
04:25 52 °F 41 °F 29.7 in SW 2 mph 4.6 mph 66% 0 in CLR
04:30 52 °F 41 °F 29.7 in SW 3 mph 5 mph 66% 0 in CLR
04:35 52.2 °F 41.9 °F 29.7 in ESE 3.1 mph 3.5 mph 68% 0 in CLR
04:40 52 °F 42.1 °F 29.7 in SSE 2 mph 3 mph 69% 0 in CLR
04:45 51.3 °F 41.7 °F 29.7 in ESE 2.4 mph 2.4 mph 70% 0 in CLR
04:50 50.9 °F 41.7 °F 29.7 in ESE 2 mph 6 mph 71% 0 in CLR
04:55 50.5 °F 41.5 °F 29.7 in SE 2.4 mph 2.9 mph 71% 0 in CLR
05:00 50.5 °F 41.5 °F 29.7 in SE 2 mph 5 mph 71% 0 in CLR
05:05 50.5 °F 41.2 °F 29.7 in SSE 2.9 mph 3.5 mph 70% 0 in CLR
05:10 50.7 °F 41.4 °F 29.7 in SSE 2 mph 2.3 mph 70% 0 in CLR
05:15 50.7 °F 40.5 °F 29.7 in WSW 2 mph 5.2 mph 68% 0 in CLR
05:20 51.3 °F 41 °F 29.7 in SSW 2 mph 6 mph 68% 0 in CLR
05:25 51.3 °F 41.2 °F 29.7 in South 2.4 mph 4.6 mph 68% 0 in CLR
05:30 51.3 °F 41.2 °F 29.7 in SSW 3 mph 6 mph 68% 0 in CLR
05:35 51.3 °F 40.6 °F 29.7 in West 3.6 mph 5.8 mph 67% 0 in CLR
05:40 51.3 °F 40.6 °F 29.7 in WSW 3 mph 7 mph 67% 0 in CLR
05:45 51.3 °F 40.6 °F 29.7 in West 3.6 mph 4.6 mph 67% 0 in CLR
05:50 51.3 °F 40.6 °F 29.7 in WSW 2.9 mph 4.6 mph 67% 0 in CLR
05:55 51.3 °F 40.6 °F 29.7 in SW 2.9 mph 3.5 mph 67% 0 in CLR
06:00 51.3 °F 40.6 °F 29.7 in SW 2 mph 5 mph 67% 0 in CLR
06:05 51.1 °F 41.4 °F 29.7 in South 2 mph 5 mph 69% 0 in CLR
06:10 50.7 °F 41.4 °F 29.7 in SSE 2 mph 5 mph 70% 0 in CLR
06:15 50.5 °F 41.5 °F 29.7 in SW 2.4 mph 5.4 mph 71% 0 in CLR
06:20 50.5 °F 41.5 °F 29.8 in SW 2 mph 5 mph 71% 0 in CLR
06:25 50.4 °F 41.7 °F 29.8 in SSE 2.9 mph 5.8 mph 72% 0 in CLR
06:30 49.8 °F 41.5 °F 29.8 in SSE 5 mph 7 mph 73% 0 in CLR
06:35 49.6 °F 41.7 °F 29.7 in SSE 4 mph 5.8 mph 74% 0 in CLR
06:40 49.5 °F 41.9 °F 29.7 in ESE 4 mph 4.6 mph 75% 0 in CLR
06:45 49.1 °F 41.5 °F 29.7 in ESE 4 mph 3.1 mph 75% 0 in CLR
06:50 48.9 °F 41.7 °F 29.8 in SSE 2.4 mph 4.6 mph 76% 0 in CLR
06:55 49.3 °F 41.4 °F 29.8 in SSE 2.4 mph 5.8 mph 74% 0 in CLR
07:00 49.5 °F 41.5 °F 29.8 in SSE 3 mph 6 mph 74% 0 in CLR
07:05 49.6 °F 41.4 °F 29.8 in SSE 3 mph 4 mph 73% 0 in CLR
07:10 49.8 °F 41.5 °F 29.8 in South 1.8 mph 4.6 mph 73% 0 in CLR
07:15 50 °F 41.7 °F 29.8 in South 2 mph 4 mph 73% 0 in CLR
07:20 49.8 °F 41.9 °F 29.8 in West 2 mph 3.5 mph 74% 0 in CLR
07:25 49.6 °F 41.7 °F 29.8 in West 2 mph 2.3 mph 74% 0 in CLR
07:30 49.5 °F 41.5 °F 29.8 in ESE 1.8 mph 5.8 mph 74% 0 in CLR
07:35 48.7 °F 41.2 °F 29.8 in SE 1.8 mph 6.9 mph 75% 0 in CLR
07:40 48.9 °F 40.6 °F 29.8 in South 4.3 mph 5.8 mph 73% 0 in CLR
07:45 49.6 °F 40.6 °F 29.8 in SSE 4.3 mph 2.3 mph 71% 0 in CLR
07:50 50.4 °F 41.4 °F 29.8 in SSE 2 mph 2.3 mph 71% 0 in CLR
07:55 51.1 °F 41.5 °F 29.8 in ENE 2 mph 3.5 mph 70% 0 in CLR
08:00 51.3 °F 41.9 °F 29.8 in ENE 2 mph 3 mph 70% 0 in CLR
08:05 51.6 °F 41.7 °F 29.8 in ENE 2 mph 6 mph 69% 0 in CLR
08:10 51.3 °F 41.4 °F 29.8 in SE 2 mph 3.5 mph 69% 0 in CLR
08:15 50.7 °F 41.7 °F 29.8 in SE 2 mph 5.8 mph 71% 0 in CLR
08:20 50.5 °F 41.5 °F 29.8 in SE 2.9 mph 2.3 mph 71% 0 in CLR
08:25 51.1 °F 42.1 °F 29.8 in SE 2.9 mph   71% 0 in CLR
08:30 51.6 °F 42.3 °F 29.8 in Calm   3.5 mph 70% 0 in CLR
08:35 52 °F 42.4 °F 29.8 in Calm   9 mph 70% 0 in CLR
08:40 52.2 °F 42.3 °F 29.8 in SE 2 mph   69% 0 in CLR
08:45 52.2 °F 41.9 °F 29.8 in SE 2 mph   68% 0 in CLR
08:50 52.3 °F 41.7 °F 29.8 in Calm   2 mph 67% 0 in CLR
08:55 52.7 °F 42.1 °F 29.8 in Calm   4.6 mph 67% 0 in CLR
09:00 53.1 °F 42.1 °F 29.8 in West 2 mph 6 mph 66% 0 in CLR
09:05 53.2 °F 41.7 °F 29.8 in West 2 mph 6 mph 65% 0 in CLR
09:10 54 °F 42.1 °F 29.8 in SW 2 mph   64% 0 in CLR
09:15 54.5 °F 41.7 °F 29.8 in WSW 2 mph 3.5 mph 62% 0 in CLR
09:20 54.9 °F 41.7 °F 29.8 in WNW 1.8 mph 5.9 mph 61% 0 in CLR
09:25 54.7 °F 41.9 °F 29.8 in NW 1.8 mph 4.7 mph 62% 0 in CLR
09:30 54.7 °F 41.9 °F 29.8 in West 5 mph 8 mph 62% 0 in CLR
09:35 55 °F 41.7 °F 29.8 in WSW 5 mph 5 mph 61% 0 in CLR
09:40 55.6 °F 41.9 °F 29.8 in South 2 mph 5 mph 60% 0 in CLR
09:45 55.9 °F 41.4 °F 29.8 in SSE 2.4 mph 6.9 mph 58% 0 in CLR
09:50 56.5 °F 42.3 °F 29.8 in SE 3.6 mph 8.1 mph 59% 0 in CLR
09:55 56.5 °F 41.9 °F 29.8 in WSW 3.6 mph 2.4 mph 58% 0 in CLR
10:00 56.8 °F 42.3 °F 29.8 in SW 3 mph 7 mph 58% 0 in CLR
10:05 57.4 °F 41.7 °F 29.8 in SW 3 mph 8 mph 56% 0 in CLR
10:10 57.7 °F 41.7 °F 29.8 in SSW 5 mph 9 mph 55% 0 in CLR
10:15 58.3 °F 40.6 °F 29.8 in West 5.2 mph 5.8 mph 52% 0 in CLR
10:20 58.6 °F 41.2 °F 29.8 in SSW 3.6 mph 5.8 mph 52% 0 in CLR
10:25 59.2 °F 40.5 °F 29.8 in SW 3.6 mph 9.2 mph 50% 0 in CLR
10:30 59.4 °F 40.6 °F 29.8 in West 4.3 mph 8.1 mph 50% 0 in CLR
10:35 59.5 °F 40.3 °F 29.8 in WSW 5 mph 9 mph 49% 0 in CLR
10:40 59.7 °F 39.9 °F 29.8 in SW 4.7 mph 6.9 mph 48% 0 in CLR
10:45 60.1 °F 40.8 °F 29.8 in SSW 4.7 mph 4.6 mph 49% 0 in CLR
10:50 60.4 °F 40.6 °F 29.8 in WNW 3.6 mph 4.6 mph 48% 0 in CLR
10:55 60.6 °F 40.3 °F 29.8 in SW 3.6 mph 9.2 mph 47% 0 in CLR
11:00 61.2 °F 40.6 °F 29.8 in WSW 5 mph 9 mph 47% 0 in CLR
11:05 61.5 °F 39.4 °F 29.8 in SSW 4.3 mph 4.6 mph 44% 0 in CLR
11:10 61.9 °F 39.7 °F 29.8 in West 3.1 mph 3.5 mph 44% 0 in CLR
11:15 62.1 °F 40.5 °F 29.8 in WSW 3.1 mph 5.8 mph 45% 0 in CLR
11:20 62.2 °F 39.9 °F 29.8 in SW 3.1 mph 6.9 mph 44% 0 in CLR
11:25 62.8 °F 38.7 °F 29.8 in WNW 3.1 mph 4.6 mph 41% 0 in CLR
11:30 63.3 °F 39.2 °F 29.8 in South 4 mph 10 mph 41% 0 in CLR
11:35 63.7 °F 37.6 °F 29.8 in SSW 4 mph 13.8 mph 38% 0 in CLR
11:40 64 °F 37.9 °F 29.8 in SSW 6.2 mph 10.4 mph 38% 0 in CLR
11:45 64 °F 37.9 °F 29.8 in WSW 6.2 mph 6.9 mph 38% 0 in CLR
11:50 64 °F 38.7 °F 29.8 in SSW 6 mph 9 mph 39% 0 in CLR
11:55 64.6 °F 37.8 °F 29.8 in SSW 6 mph 16 mph 37% 0 in CLR
12:00 64.6 °F 37 °F 29.8 in South 7 mph 15 mph 36% 0 in CLR
12:05 64.4 °F 37.6 °F 29.8 in SE 6.9 mph 9.2 mph 37% 0 in CLR
12:10 64.8 °F 37.9 °F 29.8 in SE 6.9 mph 10.4 mph 37% 0 in CLR
12:15 64.6 °F 37 °F 29.8 in South 6.9 mph 9.2 mph 36% 0 in CLR
12:20 64.6 °F 39.7 °F 29.8 in SSW 7.4 mph 15 mph 40% 0 in CLR
12:25 64.8 °F 39.2 °F 29.8 in SSE 7.4 mph 12.7 mph 39% 0 in CLR
12:30 65.1 °F 39.6 °F 29.8 in SE 10 mph 15 mph 39% 0 in CLR
12:35 64.9 °F 39.4 °F 29.8 in SE 10 mph 15 mph 39% 0 in CLR
12:40 64.6 °F 39 °F 29.8 in SSW 10 mph 15 mph 39% 0 in CLR
12:45 64.8 °F 39.9 °F 29.8 in SSE 10 mph 11.5 mph 40% 0 in CLR
12:50 64.8 °F 39.2 °F 29.8 in ESE 10 mph 12.7 mph 39% 0 in CLR
12:55 65.5 °F 39.9 °F 29.8 in SSE 10 mph 9.2 mph 39% 0 in CLR
13:00 65.7 °F 38.7 °F 29.8 in SSE 8 mph 14 mph 37% 0 in CLR
13:05 65.7 °F 37.9 °F 29.8 in SSW 8.1 mph 10.4 mph 36% 0 in CLR
13:09 65.7 °F 37.9 °F 29.8 in SE 6.9 mph 9.2 mph 36% 0 in CLR
13:15 66 °F 38.3 °F 29.8 in ESE 6.9 mph 12.7 mph 36% 0 in CLR
13:20 66.4 °F 39.4 °F 29.8 in ESE 7.4 mph 6.9 mph 37% 0 in CLR
13:25 66.6 °F 39.6 °F 29.8 in SSE 7.4 mph 15 mph 37% 0 in CLR
13:30 66.4 °F 39.4 °F 29.8 in SSE 8.7 mph 11.5 mph 37% 0 in CLR
13:35 66 °F 40.5 °F 29.8 in SSE 9 mph 18 mph 39% 0 in CLR
13:40 65.8 °F 40.8 °F 29.8 in SSE 10 mph 17 mph 40% 0 in CLR
13:45 66 °F 41 °F 29.8 in ESE 10 mph 10.4 mph 40% 0 in CLR
13:50 66.4 °F 41.4 °F 29.8 in SE 8.7 mph 11.5 mph 40% 0 in CLR
13:55 66.6 °F 42.1 °F 29.8 in SSE 8.7 mph 16.1 mph 41% 0 in CLR
14:00 66.6 °F 41.5 °F 29.8 in SE 12 mph 19 mph 40% 0 in CLR
14:05 66.2 °F 41.2 °F 29.8 in SSE 11.2 mph 16.1 mph 40% 0 in CLR
14:10 66.4 °F 42.1 °F 29.8 in SSE 11.4 mph 20.7 mph 41% 0 in CLR
14:15 66.4 °F 40.6 °F 29.8 in South 11.4 mph 13.8 mph 39% 0 in CLR
14:20 66.2 °F 41.2 °F 29.8 in SSE 12.3 mph 15 mph 40% 0 in CLR
14:25 66.7 °F 40.3 °F 29.8 in SSE 12.3 mph 13.8 mph 38% 0 in CLR
14:30 66.9 °F 41.2 °F 29.8 in SSE 10.2 mph 15 mph 39% 0 in CLR
14:35 66.9 °F 41.9 °F 29.8 in SSE 10 mph 17 mph 40% 0 in CLR
14:40 66.9 °F 43.2 °F 29.8 in SSE 11.4 mph 17.3 mph 42% 0 in CLR
14:45 66.9 °F 42.4 °F 29.8 in SSE 11.4 mph 20.7 mph 41% 0 in CLR
14:50 66.9 °F 43.7 °F 29.8 in South 13 mph 18.4 mph 43% 0 in CLR
14:55 66.9 °F 44.2 °F 29.8 in SSE 13 mph 20.7 mph 44% 0 in CLR
15:00 67.1 °F 44.4 °F 29.8 in SSE 13 mph 18 mph 44% 0 in CLR
15:05 67.1 °F 43.9 °F 29.8 in SE 12.5 mph 17.3 mph 43% 0 in CLR
15:10 67.3 °F 44.1 °F 29.8 in ESE 12.3 mph 17.3 mph 43% 0 in CLR
15:15 67.6 °F 45 °F 29.8 in South 12.3 mph 15 mph 44% 0 in CLR
15:20 67.8 °F 44.4 °F 29.8 in SSE 10 mph 19 mph 43% 0 in CLR
15:25 67.6 °F 45 °F 29.8 in SE 10.7 mph 19.6 mph 44% 0 in CLR
15:30 67.6 °F 44.2 °F 29.8 in SSE 11.8 mph 20.4 mph 43% 0 in CLR
15:35 67.5 °F 44.8 °F 29.8 in South 11.8 mph 21.9 mph 44% 0 in CLR
15:40 67.6 °F 45.5 °F 29.8 in SE 13 mph 19 mph 45% 0 in CLR
15:45 67.6 °F 46.8 °F 29.8 in SSE 12.5 mph 18.4 mph 47% 0 in CLR
15:50 67.5 °F 45.9 °F 29.8 in SE 12.5 mph 17.5 mph 46% 0 in CLR
15:55 67.3 °F 46.4 °F 29.8 in SE 12.5 mph 16.3 mph 47% 0 in CLR
16:00 67.6 °F 47.3 °F 29.8 in SE 12 mph 17 mph 48% 0 in CLR
16:05 67.8 °F 46.2 °F 29.8 in SSE 11.4 mph 18.4 mph 46% 0 in CLR
16:10 67.8 °F 44.4 °F 29.8 in ESE 11.4 mph 20.7 mph 43% 0 in CLR
16:15 68 °F 45.9 °F 29.8 in SE 11.4 mph 10.4 mph 45% 0 in CLR
16:20 68.4 °F 45.7 °F 29.8 in SSE 12 mph 21 mph 44% 0 in CLR
16:25 68.2 °F 45.3 °F 29.8 in SSE 11.4 mph 19.6 mph 44% 0 in CLR
16:30 68 °F 45.9 °F 29.8 in SSE 13 mph 19.6 mph 45% 0 in CLR
16:35 68 °F 45.9 °F 29.8 in South 13 mph 19.6 mph 45% 0 in CLR
16:40 68.2 °F 45.3 °F 29.8 in SSE 12.5 mph 18.4 mph 44% 0 in CLR
16:45 67.8 °F 45.7 °F 29.8 in SSE 12.5 mph 20.7 mph 45% 0 in CLR
16:50 67.6 °F 45.5 °F 29.8 in South 14 mph 24 mph 45% 0 in CLR
16:55 67.8 °F 46.8 °F 29.8 in SE 14 mph 17.3 mph 47% 0 in CLR
17:00 68.2 °F 46.6 °F 29.8 in SSE 12 mph 18 mph 46% 0 in CLR
17:05 68.2 °F 46.6 °F 29.8 in SSE 11.8 mph 12.7 mph 46% 0 in CLR
17:10 68.5 °F 46.2 °F 29.8 in SSE 12 mph 17 mph 45% 0 in CLR
17:15 68.7 °F 46.6 °F 29.8 in South 11.4 mph 18.4 mph 45% 0 in CLR
17:20 68.5 °F 46.9 °F 29.8 in South 10.7 mph 16.1 mph 46% 0 in CLR
17:25 68.5 °F 45.9 °F 29.8 in SSE 10.7 mph 16.1 mph 44% 0 in CLR
17:30 68.5 °F 46.2 °F 29.8 in South 10.7 mph 18.4 mph 45% 0 in CLR
17:35 68.5 °F 46.9 °F 29.8 in SSE 10.7 mph 19.6 mph 46% 0 in CLR
17:40 68.5 °F 47.7 °F 29.8 in South 12 mph 20 mph 47% 0 in CLR
17:45 68.7 °F 47.1 °F 29.8 in South 11.4 mph 15.2 mph 46% 0 in CLR
17:50 68.4 °F 46.8 °F 29.8 in SE 12.3 mph 16.1 mph 46% 0 in CLR
17:55 68.5 °F 47.5 °F 29.8 in South 12.3 mph 15.9 mph 47% 0 in CLR
18:00 68.4 °F 48.6 °F 29.8 in SSE 12 mph 18 mph 49% 0 in CLR
18:05 68.4 °F 48.6 °F 29.8 in SE 11.2 mph 15 mph 49% 0 in CLR
18:10 68.4 °F 48.9 °F 29.8 in SSE 13 mph 19 mph 50% 0 in CLR
18:15 68.2 °F 48.4 °F 29.8 in SSW 12.3 mph 16.1 mph 49% 0 in CLR
18:20 68.5 °F 49.3 °F 29.8 in SSE 11.8 mph 13.8 mph 50% 0 in CLR
18:25 68.4 °F 47.8 °F 29.8 in SSE 11.8 mph 20.7 mph 48% 0 in CLR
18:30 68 °F 49.3 °F 29.8 in SSE 11.2 mph 16.1 mph 51% 0 in CLR
18:35 67.8 °F 48.9 °F 29.8 in SE 12 mph 20 mph 51% 0 in CLR
18:40 67.5 °F 48.7 °F 29.8 in SSE 12.3 mph 16.1 mph 51% 0 in CLR
18:45 67.5 °F 49.3 °F 29.8 in SE 12.3 mph 16.1 mph 52% 0 in CLR
18:50 67.5 °F 49.6 °F 29.8 in SSE 12 mph 21 mph 53% 0 in CLR
18:55 67.6 °F 49.5 °F 29.8 in SE 11.2 mph 15.2 mph 52% 0 in CLR
19:00 67.3 °F 50.2 °F 29.8 in SSE 12 mph 22 mph 54% 0 in CLR
19:05 66.9 °F 50.2 °F 29.8 in South 11.2 mph 13.8 mph 55% 0 in CLR
19:10 66.9 °F 50.7 °F 29.8 in SSE 11.2 mph 15 mph 56% 0 in CLR
19:15 66.9 °F 51.3 °F 29.8 in SE 11.2 mph 17.3 mph 57% 0 in CLR
19:20 66.6 °F 51.3 °F 29.8 in South 9.7 mph 18.4 mph 58% 0 in CLR
19:25 66 °F 51.3 °F 29.8 in SE 9.7 mph 16.3 mph 59% 0 in CLR
19:30 66 °F 51.3 °F 29.8 in South 11.4 mph 13.8 mph 59% 0 in CLR
19:35 65.8 °F 51.1 °F 29.8 in South 12 mph 16 mph 59% 0 in CLR
19:40 65.5 °F 50.4 °F 29.8 in SSE 9.7 mph 15 mph 58% 0 in CLR
19:45 65.5 °F 50.4 °F 29.8 in SSE 9.7 mph 13.7 mph 58% 0 in CLR
19:50 65.1 °F 50.4 °F 29.8 in South 10.2 mph 13.8 mph 59% 0 in CLR
19:55 65.1 °F 50.9 °F 29.8 in SSE 10.2 mph 16.1 mph 60% 0 in CLR
20:00 65.1 °F 50.7 °F 29.8 in South 9 mph 13 mph 60% 0 in CLR
20:05 64.9 °F 50.7 °F 29.8 in SSE 9 mph 15 mph 60% 0 in CLR
20:10 64.9 °F 50.4 °F 29.8 in South 8.5 mph 10.4 mph 59% 0 in CLR
20:15 64.8 °F 50.2 °F 29.8 in South 8.5 mph 15 mph 59% 0 in CLR
20:20 64.8 °F 50.5 °F 29.8 in SSE 8.5 mph 8.1 mph 60% 0 in CLR
20:25 64.8 °F 50.5 °F 29.8 in SSE 8.5 mph 3.5 mph 60% 0 in CLR
20:30 64.9 °F 50.7 °F 29.8 in South 3 mph 8 mph 60% 0 in CLR
20:35 64.8 °F 50.5 °F 29.8 in South 3.1 mph 12.7 mph 60% 0 in CLR
20:40 64.2 °F 50 °F 29.8 in South 6.4 mph 9.2 mph 60% 0 in CLR
20:45 64.2 °F 50 °F 29.8 in ESE 6.4 mph 5.4 mph 60% 0 in CLR
20:50 64.2 °F 50 °F 29.8 in ENE 4 mph 4.6 mph 60% 0 in CLR
20:55 64 °F 50.7 °F 29.8 in NE 4 mph 4.6 mph 62% 0 in CLR
21:00 63.9 °F 50.9 °F 29.8 in NNE 2 mph 5 mph 63% 0 in CLR
21:05 63.5 °F 49.8 °F 29.8 in North 2.9 mph 4.6 mph 61% 0 in CLR
21:10 63.3 °F 50.2 °F 29.8 in NE 2.4 mph 4.6 mph 62% 0 in CLR
21:15 63.3 °F 50.9 °F 29.8 in NNW 2.4 mph 3.5 mph 64% 0 in CLR
21:20 63.1 °F 50.7 °F 29.8 in NNW 2 mph 3.5 mph 64% 0 in CLR
21:25 63 °F 50.2 °F 29.8 in NE 2 mph 2.3 mph 63% 0 in CLR
21:30 63 °F 50.5 °F 29.8 in SSW 1.8 mph 4.6 mph 64% 0 in CLR
21:35 63 °F 50.5 °F 29.8 in South 2 mph 5 mph 64% 0 in CLR
21:40 62.8 °F 51.3 °F 29.8 in SE 1.8 mph 4.6 mph 66% 0 in CLR
21:45 62.4 °F 51.6 °F 29.8 in East 1.8 mph 4.6 mph 68% 0 in CLR
21:50 62.1 °F 51.8 °F 29.8 in East 2.9 mph 4.6 mph 69% 0 in CLR
21:55 61.7 °F 51.8 °F 29.8 in East 2.9 mph 4.6 mph 70% 0 in CLR
22:00 61.3 °F 52 °F 29.8 in East 3 mph 9 mph 71% 0 in CLR
22:05 61 °F 52 °F 29.8 in ESE 3 mph 11 mph 72% 0 in CLR
22:10 61 °F 52 °F 29.8 in SE 4.3 mph 4.6 mph 72% 0 in CLR
22:15 61 °F 52 °F 29.8 in SE 4.3 mph   72% 0 in CLR
22:20 61 °F 51.4 °F 29.8 in SE 1.8 mph 2.3 mph 71% 0 in CLR
22:25 61 °F 52 °F 29.8 in West 1.8 mph 2.4 mph 72% 0 in CLR
22:30 61 °F 52 °F 29.8 in West 2 mph   72% 0 in CLR
22:35 60.6 °F 52 °F 29.8 in West 2 mph   73% 0 in CLR
22:40 60.6 °F 52 °F 29.8 in Calm     73% 0 in CLR
22:45 60.6 °F 52 °F 29.8 in Calm     73% 0 in CLR
22:50 60.6 °F 52.3 °F 29.8 in Calm     74% 0 in CLR
22:55 60.4 °F 52.2 °F 29.8 in Calm   4.6 mph 74% 0 in CLR
23:00 60.4 °F 52.2 °F 29.8 in NW 2 mph 4 mph 74% 0 in CLR
23:05 60.3 °F 52 °F 29.8 in North 2 mph 5 mph 74% 0 in CLR
23:10 60.1 °F 52.2 °F 29.8 in ESE 2.9 mph 4.7 mph 75% 0 in CLR
23:15 60.1 °F 51.8 °F 29.8 in South 2.9 mph 5.9 mph 74% 0 in CLR
23:20 60.3 °F 51.6 °F 29.8 in SSW 3.6 mph 5.8 mph 73% 0 in CLR
23:25 60.4 °F 51.6 °F 29.8 in WSW 3.6 mph 4.6 mph 73% 0 in CLR
23:30 60.4 °F 51.4 °F 29.8 in South 3.6 mph 5.8 mph 72% 0 in CLR
23:35 60.6 °F 51.4 °F 29.8 in South 3.6 mph 5.8 mph 72% 0 in CLR
23:40 60.8 °F 51.6 °F 29.8 in ESE 3.6 mph 4.6 mph 72% 0 in CLR
23:45 60.4 °F 51.3 °F 29.8 in SE 3 mph 9 mph 72% 0 in CLR
23:50 59.7 °F 51.1 °F 29.8 in ESE 5 mph 8 mph 73% 0 in CLR
23:55 59.4 °F 51.1 °F 29.8 in ESE 4.7 mph 5.8 mph 74% 0 in CLR
Murcia-Puente Tocinos, España
Compliments of Weather Underground - 2.75 mb

La estación de MeteoMurcia.com, publica sus datos en los siguientes proyectos:

Weather Underground PWS IMURCIAP2 Meteoclimatic www.awekas.at

W3Counter
Web Analytics